Weather History for Buffalo, MN

Change the Weather History Date:

Thursday, December 6, 2012

  Actual Average (KSTC) Record (KSTC)
Temperature  
Mean Temperature 34 °F 19 °F  
Max Temperature 45 °F 28 °F 63 °F (1939)
Min Temperature 23 °F 11 °F -27 °F (1972)
Degree Days  
Heating Degree Days 30 46  
Month to date heating degree days 269  
Since 1 July heating degree days 2194  
Cooling Degree Days 0 0  
Month to date cooling degree days 0  
Year to date cooling degree days 465  
Moisture  
Dew Point 28 °F    
Average Humidity 70    
Maximum Humidity 88    
Minimum Humidity 58    
Precipitation  
Precipitation 0.00 in 0.03 in 0.49 in (1935)
Month to date precipitation 0.18  
Year to date precipitation 27.09  
Snow  
Snow 0.00 in 0.30 in 4.30 in (1969)
Month to date snowfall 1.9  
Since 1 July snowfall 11.1  
Snow Depth -    
Sea Level Pressure  
Sea Level Pressure 29.87 in    
Wind  
Wind Speed 10 mph (WSW)    
Max Wind Speed 17 mph    
Max Gust Speed 22 mph    
Visibility 10 miles    
Events Rain    
T = Trace of Precipitation, MM = Missing Value Source: NWS Daily Summary

Daily Weather History Graph

Daily Weather History Graph

Search for Another Location

Airport:

Trip Planner

Search our weather history database for the weather conditions in past years. The results will help you decide how hot, cold, wet, or windy it might be!

Date:

Astronomy

Dec. 06, 2012 Rise Set
Actual Time 7:39 AM CST 4:33 PM CST
Civil Twilight 7:06 AM CST 5:06 PM CST
Nautical Twilight 6:29 AM CST 5:43 PM CST
Astronomical Twilight 5:53 AM CST 6:19 PM CST
Moon No Moon Rise 12:16 PM CST (12/6)
Length of Visible Light 10h 00m
Length of Day
8h 53m
Waning Gibbous, 49% of the Moon is Illuminated
Dec 6
Waning Gibbous
Dec 13
New
Dec 19
First Quarter
Dec 28
Full
Jan 4
Last Quarter

Hourly Weather History & Observations

Time (CST) Temp. Windchill Dew Point Humidity Pressure Visibility Wind Dir Wind Speed Gust Speed Precip Events Conditions
12:13 AM 41.0 °F 34.3 °F 27.3 °F 58% 29.81 in 10.0 mi SSE 11.5 mph 18.4 mph N/A   Overcast
12:33 AM 41.0 °F 35.2 °F 27.5 °F 59% 29.81 in 10.0 mi SSE 9.2 mph - N/A   Overcast
12:54 AM 41.4 °F 36.2 °F 28.8 °F 61% 29.81 in 10.0 mi SSE 8.1 mph - N/A   Overcast
1:13 AM 43.7 °F 37.7 °F 30.0 °F 59% 29.80 in 10.0 mi SSE 11.5 mph 18.4 mph N/A   Overcast
1:33 AM 43.7 °F 37.7 °F 30.2 °F 59% 29.80 in 10.0 mi SSE 11.5 mph 18.4 mph N/A   Overcast
1:53 AM 43.3 °F 38.6 °F 30.7 °F 61% 29.79 in 10.0 mi SSE 8.1 mph 18.4 mph N/A   Overcast
2:13 AM 43.2 °F 38.4 °F 31.1 °F 62% 29.79 in 10.0 mi SSE 8.1 mph - N/A   Overcast
2:33 AM 43.3 °F 38.6 °F 31.1 °F 62% 29.79 in 10.0 mi SSE 8.1 mph - N/A   Overcast
2:53 AM 43.7 °F 40.3 °F 31.5 °F 62% 29.78 in 10.0 mi SSE 5.8 mph - N/A   Overcast
3:13 AM 43.7 °F 39.7 °F 31.8 °F 63% 29.78 in 10.0 mi SSE 6.9 mph - N/A   Light Drizzle
3:33 AM 44.4 °F 40.0 °F 32.0 °F 62% 29.78 in 10.0 mi South 8.1 mph 17.3 mph N/A   Light Drizzle
3:53 AM 45.0 °F 38.9 °F 32.0 °F 60% 29.77 in 10.0 mi South 12.7 mph 17.3 mph N/A   Overcast
4:13 AM 45.5 °F 39.6 °F 32.2 °F 60% 29.77 in 10.0 mi South 12.7 mph 17.3 mph N/A   Overcast
4:33 AM 45.5 °F 40.8 °F 33.1 °F 62% 29.77 in 10.0 mi South 9.2 mph 19.6 mph N/A   Overcast
4:53 AM 45.0 °F 40.6 °F 33.8 °F 65% 29.77 in 10.0 mi South 8.1 mph 18.4 mph N/A   Overcast
5:13 AM 43.9 °F 39.3 °F 34.7 °F 70% 29.77 in 10.0 mi South 8.1 mph 16.1 mph N/A Rain Light Rain
5:33 AM 43.7 °F 37.7 °F 34.7 °F 71% 29.77 in 10.0 mi South 11.5 mph 16.1 mph N/A   Light Drizzle
5:53 AM 43.2 °F 37.4 °F 34.9 °F 73% 29.76 in 10.0 mi South 10.4 mph 19.6 mph N/A Rain Rain
6:13 AM 42.8 °F 38.0 °F 34.9 °F 74% 29.77 in 10.0 mi SSW 8.1 mph - N/A   Overcast
6:33 AM 42.8 °F 38.0 °F 34.7 °F 73% 29.76 in 10.0 mi South 8.1 mph - N/A   Overcast
6:53 AM 42.6 °F 38.4 °F 34.7 °F 74% 29.77 in 10.0 mi SSW 6.9 mph - N/A   Overcast
7:13 AM 41.7 °F 38.8 °F 34.5 °F 76% 29.76 in 10.0 mi South 4.6 mph - N/A   Scattered Clouds
7:33 AM 41.0 °F 37.1 °F 34.3 °F 77% 29.78 in 10.0 mi SSW 5.8 mph - N/A   Clear
7:53 AM 40.5 °F 35.8 °F 34.3 °F 79% 29.79 in 10.0 mi WSW 6.9 mph - N/A   Clear
8:13 AM 41.0 °F 33.9 °F 32.0 °F 70% 29.80 in 10.0 mi West 12.7 mph - N/A   Clear
8:33 AM 39.2 °F 32.5 °F 31.5 °F 74% 29.80 in 10.0 mi West 10.4 mph - N/A   Clear
8:53 AM 38.5 °F 30.7 °F 30.7 °F 74% 29.81 in 10.0 mi West 12.7 mph - N/A   Clear
9:13 AM 38.1 °F 30.7 °F 30.7 °F 75% 29.82 in 10.0 mi West 11.5 mph - N/A   Clear
9:33 AM 37.6 °F 29.6 °F 30.9 °F 77% 29.83 in 10.0 mi West 12.7 mph - N/A   Clear
9:54 AM 39.2 °F 31.6 °F 31.6 °F 74% 29.84 in 10.0 mi West 12.7 mph 17.3 mph N/A   Clear
10:13 AM 39.4 °F 31.4 °F 31.6 °F 74% 29.84 in 10.0 mi West 13.8 mph 18.4 mph N/A   Clear
10:33 AM 39.6 °F 30.6 °F 31.1 °F 72% 29.85 in 10.0 mi West 17.3 mph 21.9 mph N/A   Scattered Clouds
10:54 AM 40.5 °F 33.2 °F 31.5 °F 70% 29.86 in 10.0 mi West 12.7 mph - N/A   Scattered Clouds
11:13 AM 39.2 °F 30.5 °F 30.9 °F 72% 29.86 in 10.0 mi West 16.1 mph 21.9 mph N/A   Overcast
11:33 AM 39.4 °F 31.1 °F 30.6 °F 71% 29.85 in 10.0 mi West 15.0 mph 20.7 mph N/A   Overcast
11:54 AM 38.3 °F 30.5 °F 30.6 °F 74% 29.86 in 10.0 mi West 12.7 mph - N/A   Overcast
12:13 PM 38.3 °F 30.9 °F 30.7 °F 74% 29.85 in 10.0 mi West 11.5 mph - N/A   Overcast
12:33 PM 38.3 °F 31.9 °F 30.2 °F 73% 29.86 in 10.0 mi West 9.2 mph 16.1 mph N/A   Mostly Cloudy
12:54 PM 39.4 °F 32.7 °F 28.9 °F 66% 29.86 in 10.0 mi West 10.4 mph - N/A   Scattered Clouds
1:13 PM 39.7 °F 32.7 °F 28.8 °F 65% 29.86 in 10.0 mi West 11.5 mph - N/A   Clear
1:33 PM 40.1 °F 33.6 °F 28.2 °F 63% 29.87 in 10.0 mi West 10.4 mph - N/A   Clear
1:53 PM 41.0 °F 34.3 °F 28.6 °F 61% 29.87 in 10.0 mi West 11.5 mph 16.1 mph N/A   Clear
2:13 PM 41.0 °F 34.3 °F 29.1 °F 63% 29.87 in 10.0 mi West 11.5 mph - N/A   Clear
2:33 PM 40.8 °F 34.1 °F 29.1 °F 63% 29.87 in 10.0 mi West 11.5 mph - N/A   Clear
2:53 PM 39.9 °F 32.5 °F 27.9 °F 62% 29.88 in 10.0 mi West 12.7 mph 20.7 mph N/A   Clear
3:13 PM 38.3 °F 31.9 °F 28.0 °F 67% 29.88 in 10.0 mi WSW 9.2 mph - N/A   Clear
3:34 PM 37.8 °F 30.7 °F 27.3 °F 66% 29.89 in 10.0 mi West 10.4 mph - N/A   Clear
3:53 PM 37.8 °F 31.3 °F 27.3 °F 66% 29.90 in 10.0 mi West 9.2 mph - N/A   Clear
4:13 PM 37.6 °F 30.0 °F 26.4 °F 64% 29.90 in 10.0 mi West 11.5 mph - N/A   Clear
4:34 PM 36.7 °F 28.0 °F 25.9 °F 65% 29.91 in 10.0 mi West 13.8 mph 19.6 mph N/A   Scattered Clouds
4:53 PM 36.0 °F 28.0 °F 25.5 °F 66% 29.92 in 10.0 mi West 11.5 mph - N/A   Clear
5:13 PM 35.6 °F 28.0 °F 25.7 °F 67% 29.93 in 10.0 mi West 10.4 mph - N/A   Clear
5:34 PM 35.1 °F 26.4 °F 25.3 °F 68% 29.93 in 10.0 mi West 12.7 mph 16.1 mph N/A   Clear
5:53 PM 34.5 °F 26.2 °F 25.2 °F 69% 29.94 in 10.0 mi West 11.5 mph - N/A   Clear
6:13 PM 33.3 °F 26.4 °F 25.0 °F 72% 29.95 in 10.0 mi West 8.1 mph - N/A   Clear
6:34 PM 32.4 °F 24.6 °F 24.3 °F 72% 29.95 in 10.0 mi West 9.2 mph - N/A   Clear
7:13 PM 31.6 °F 26.0 °F 23.7 °F 73% 29.97 in 10.0 mi West 5.8 mph - N/A   Clear
7:34 PM 31.6 °F 23.7 °F 23.7 °F 73% 29.98 in 10.0 mi WNW 9.2 mph - N/A   Clear
7:53 PM 31.5 °F 24.9 °F 23.4 °F 72% 29.97 in 10.0 mi WNW 6.9 mph - N/A   Clear
8:13 PM 30.0 °F 21.7 °F 22.5 °F 73% 29.98 in 10.0 mi NW 9.2 mph - N/A   Clear
8:34 PM 28.8 °F 22.6 °F 22.1 °F 76% 29.98 in 10.0 mi NW 5.8 mph - N/A   Clear
8:53 PM 28.2 °F 20.2 °F 21.9 °F 77% 29.99 in 10.0 mi NW 8.1 mph - N/A   Clear
9:13 PM 27.3 °F 18.4 °F 21.2 °F 78% 29.99 in 10.0 mi NW 9.2 mph - N/A   Clear
9:34 PM 27.1 °F 20.7 °F 20.8 °F 77% 29.99 in 10.0 mi NW 5.8 mph - N/A   Clear
9:53 PM 26.4 °F - 20.3 °F 78% 29.99 in 10.0 mi Calm Calm - N/A   Clear
10:13 PM 25.9 °F 21.7 °F 20.7 °F 81% 30.00 in 10.0 mi WNW 3.5 mph - N/A   Clear
10:33 PM 25.7 °F - 20.3 °F 80% 30.00 in 10.0 mi Calm Calm - N/A   Clear
10:53 PM 25.5 °F - 20.3 °F 81% 30.00 in 10.0 mi Calm Calm - N/A   Clear
11:13 PM 24.6 °F 20.3 °F 20.3 °F 84% 30.01 in 10.0 mi West 3.5 mph - N/A   Clear
11:33 PM 24.1 °F - 19.9 °F 84% 30.01 in 10.0 mi Calm Calm - N/A   Clear
11:53 PM 23.0 °F - 19.9 °F 88% 30.01 in 10.0 mi Calm Calm - N/A   Clear